Regional Weather Roundup
Issued by NWS

Home | Current Version | Previous Version | Text Only | Print | Product List | Glossary Off
Versions: 1 2 3 4 5 6 7 8 9 10 11 12 13 14 15 16 17 18 19 20 21 22 23 24 25 26 27 28 29 30 31 32 33 34 35 36 37 38 39 40 41 42 43 44 45 46 47 48 49 50

000
ASUS43 KBIS 210010
RWRND

NORTH DAKOTA REGIONAL WEATHER ROUNDUP
NATIONAL WEATHER SERVICE BISMARCK ND
700 PM CDT MON APR 20 2015

NOTE: "FAIR" INDICATES FEW OR NO CLOUDS BELOW 12,000 FEET WITH NO
SIGNIFICANT WEATHER AND/OR OBSTRUCTIONS TO VISIBILITY.


NDZ001>003-009>011-017-210100-
NORTHWEST NORTH DAKOTA

CITY           SKY/WX    TMP DP  RH WIND       PRES   REMARKS
WILLISTON      SUNNY     53  14  21 NW21G30   29.83S
6HR MIN TEMP:  51; 6HR MAX TEMP:  56;

MINOT          SUNNY     49   5  16 NW22G32   29.75R
MINOT AFB      SUNNY     50   8  18 NW25G33   29.74R
$$

NDZ018>021-031>035-040>046-210100-
SOUTHWEST NORTH DAKOTA

CITY           SKY/WX    TMP DP  RH WIND       PRES   REMARKS
BISMARCK       SUNNY     51   3  14 NW24G40   29.76R
6HR MIN TEMP:  49; 6HR MAX TEMP:  54;

DICKINSON      PTSUNNY   49  13  23 NW23G30   29.80S
GARRISON         N/A     50  10  20 N31G40    29.75S
6HR MIN TEMP:  49; 6HR MAX TEMP:  53;

HETTINGER ARPT CLOUDY    48  14  25 NW22G30   29.83R
$$

NDZ004>008-012>016-024-026-027-054-210100-
NORTHEAST NORTH DAKOTA

CITY           SKY/WX    TMP DP  RH WIND       PRES   REMARKS
GRAND FORKS    CLOUDY    37  30  75 NW22G30   29.62R
GRND FRKS AFB  CLOUDY    37  29  74 N16G22    29.63R
DEVILS LAKE    CLOUDY    41  27  56 N24G30    29.67S
$$

NDZ022-023-025-028>030-036>039-047>053-210100-
SOUTHEAST NORTH DAKOTA

CITY           SKY/WX    TMP DP  RH WIND       PRES   REMARKS
FARGO          CLOUDY    38  34  85 NW23      29.62S
6HR MIN TEMP:  35; 6HR MAX TEMP:  40; 6HR PCP:  0.04;

JAMESTOWN      CLOUDY    43  24  47 N22G33    29.67R
$$




USA.gov is the U.S. government's official web portal to all federal, state and local government web resources and services.